Location: Akdamlar
(36.8729°N, 30.5187°E)
Time: 17:54:27
(UTC+00:00)

Cosmos 1378 Rocket - Pass Details

Date: 18 September 2020
Orbit: 601 x 628 km, 82.5° (Epoch: 26 October)

Event Time Altitude Azimuth Distance (km) Brightness Sun altitude
Rises 16:22:53 0° 352° (N) 2,863 7.2 -5.3°
Reaches altitude 10° 16:25:06 10° 353° (N) 1,953 6.3 -5.7°
Maximum altitude 16:29:25 88° 261° (W) 607 3.6 -6.6°
Drops below altitude 10° 16:33:42 10° 175° (S) 1,935 6.0 -7.4°
Sets 16:35:54 0° 175° (S) 2,834 6.8 -7.9°
